Find Starlink 31237

NORAD ID: 58855 Int'l Des: 2024-019 Owner: SPXS Country: US Constellation: starlink operational
LEOCIRCULAR

Live Position

Loading 3D Globe...

About Starlink 31237

Description loading...

Upcoming Passes

Passes for default location (London). Set your location on the main map for personalized predictions.

Altitude History

Loading altitude history...

Two-Line Element Set

1 58855U 24019C 26111.96178275 .00002787 00000-0 11077-3 0 9996
2 58855 43.0055 4.2770 0001331 266.6484 93.4215 15.27578505125708
Epoch: Apr 21, 2026 • Age: 19 hours

Current Status

Altitude 483.8 km
Velocity 7.63 km/s
Sub-Earth Point 27.06°N, 89.44°W
Launch Date Jan 29, 2024
Age 2.2 years
Type internet

Technical Details

Classification Payload
Mass 730.00 kg
Dry Mass 700.00 kg
Total Mass 730.00 kg
Length 0.30 m
Diameter 4.10 m
Span 29.00 m
Shape Box + pan
Manufacturer SPXS
Bus Type Starlink V2M
Phase Status In Orbit
Owner/State SPXS/US

Most Searched